Temperature
20 20 20 20 20 20 20 20 20 20 20 20 19 19 19 19 19 19 19 19 18 18 18 18 18 18 18 18 18 18 18 18 18 17 17 17 17 17 17 17 17 17 17
20 20 20 20 20 20 20 20 20 20 20 19 19 19 19 19 19 19 19 19 18 18 18 18 18 18 18 18 18 18 18 18 18 17 17 17 17 17 17 17 17 17 17
21 20 20 20 20 20 20 20 19 19 19 19 19 19 19 19 19 19 19 18 18 18 18 18 18 18 18 18 18 17 17 17 17 17 17 17 17 17 17 17 17 17 17
21 21 20 20 20 20 20 20 19 19 19 19 19 19 19 19 19 19 19 18 18 19 18 18 18 18 18 18 17 17 17 17 17 17 17 17 17 17 17 17 17 17 17
21 21 20 20 20 20 20 19 19 19 19 19 19 19 19 18 18 18 18 18 19 18 18 18 18 18 18 17 17 17 17 17 17 17 17 17 17 17 17 17 17 17 17
21 21 20 20 20 20 20 19 19 19 19 19 19 19 18 18 18 18 18 18 18 18 18 18 18 18 17 17 17 17 17 17 17 17 17 17 17 17 17 17 17 17 17
21 21 20 20 20 20 20 20 19 19 19 19 19 19 18 18 18 18 18 18 18 18 18 18 18 18 17 17 17 17 17 17 17 17 17 17 17 17 17 17 17 17 17
21 21 20 20 20 20 20 20 19 19 19 19 19 19 19 18 18 18 18 18 18 18 18 18 18 18 17 17 17 17 17 17 17 17 18 18 17 17 17 17 17 17 17
21 21 21 20 20 20 20 20 20 19 19 19 19 19 18 18 18 18 18 18 18 18 18 18 18 18 17 17 17 17 17 17 17 17 18 18 17 17 17 17 17 17 17
21 21 21 20 20 20 20 20 20 19 19 19 19 19 18 18 18 18 18 18 18 18 18 18 18 18 17 17 17 17 17 17 17 18 18 18 18 17 17 17 17 17 17
21 21 21 21 20 20 20 20 19 19 19 19 19 18 18 18 18 18 18 18 18 18 18 18 18 18 18 17 17 17 17 17 18 18 18 18 18 17 17 17 17 17 17
21 21 21 21 20 20 20 20 19 19 19 19 19 19 19 18 18 18 18 18 18 18 18 18 18 18 18 18 17 17 17 18 18 18 18 18 18 17 17 17 17 17 17
22 21 21 21 21 20 20 20 19 19 19 19 19 19 18 18 18 18 18 18 18 18 18 18 18 18 18 18 18 17 17 18 18 18 18 18 18 17 17 17 17 17 17
21 21 21 21 21 20 20 20 20 19 19 19 19 18 18 18 18 18 18 18 18 18 18 18 18 18 18 18 18 18 18 18 18 18 18 18 18 17 17 17 17 17 17
21 21 21 21 21 20 20 20 20 19 19 19 19 19 18 18 18 18 18 18 18 18 18 18 18 18 18 18 18 18 18 18 18 18 18 18 18 17 17 17 17 17 17
22 21 21 21 20 20 20 20 20 19 19 19 19 19 18 18 18 18 18 18 18 18 18 18 18 18 18 18 18 18 18 18 18 18 18 18 18 17 17 17 17 17 17
22 21 21 21 20 20 20 20 19 19 19 19 19 19 19 18 18 18 18 18 18 18 18 18 18 18 18 18 18 18 18 18 18 18 18 18 18 17 17 17 17 17 17
22 21 21 20 20 20 20 20 19 19 19 19 19 19 19 18 18 18 18 18 18 18 18 18 18 18 18 18 18 18 18 18 18 18 17 17 17 17 17 17 17 17 17
22 21 21 21 20 20 20 20 19 19 19 19 19 19 19 19 18 18 18 18 18 18 18 18 18 18 18 18 18 18 18 18 18 18 18 17 17 17 17 17 17 17 17
22 21 21 20 20 20 20 20 19 19 19 19 19 19 19 19 18 18 18 18 18 18 18 18 18 18 18 18 18 18 18 18 18 18 18 17 17 17 17 17 17 17 17
21 21 21 20 20 20 20 20 19 19 19 19 19 19 19 18 18 18 18 18 18 18 18 18 18 18 18 18 18 18 18 18 18 18 18 18 17 17 17 17 17 17 17
21 21 21 20 20 20 20 20 20 20 19 19 19 19 18 18 18 18 18 18 18 18 18 18 18 18 18 18 18 18 18 18 18 18 18 18 18 17 17 17 17 17 17
21 21 21 20 20 20 20 20 19 19 19 19 19 19 19 18 18 18 18 18 18 18 18 18 18 18 18 18 18 18 18 18 18 18 18 18 18 18 18 17 17 17 17
21 21 21 20 20 20 19 19 19 19 19 19 19 19 19 18 18 18 18 18 18 18 18 18 18 18 18 18 18 18 18 18 18 18 18 18 18 18 18 18 18 17 17
21 21 20 20 20 20 19 19 19 19 19 19 19 19 18 18 18 18 18 18 18 18 18 18 18 18 18 18 18 18 18 18 18 18 18 18 18 18 18 18 18 18 18
21 20 20 20 20 19 19 19 19 19 19 19 19 18 18 18 18 18 18 18 18 18 18 18 18 18 18 18 18 18 18 18 18 18 18 18 18 18 18 18 18 18 18
Wind_Speed
9 13 19 19 19 19 19 19 19 19 20 20 20 20 20 20 19 19 19 18 18 17 17 17 18 18 19 19 19 20 20 20 20 20 20 19 19 19 20 20 19 17 19
13 17 20 20 19 19 19 19 19 18 19 19 19 19 19 19 18 18 18 17 17 17 17 17 17 18 18 18 19 19 19 20 20 19 19 18 18 18 18 18 17 16 18
16 18 20 20 20 19 19 19 18 18 18 18 18 17 18 18 17 17 17 17 16 16 16 16 17 17 17 17 18 18 18 19 19 19 17 16 17 18 18 18 18 18 17
17 18 20 21 20 20 19 18 18 18 17 17 17 16 17 17 16 16 16 16 16 16 16 16 16 16 16 16 16 16 17 17 18 17 14 14 15 17 17 17 17 17 17
15 18 21 22 21 20 19 18 18 17 17 16 16 16 16 16 16 16 16 16 16 15 15 15 15 15 15 14 14 14 15 15 16 15 14 14 15 16 17 17 17 16 16
13 17 21 22 21 20 19 18 17 17 16 16 16 15 15 16 16 16 16 15 15 15 14 14 13 13 13 13 12 12 13 15 15 14 14 14 14 16 16 16 16 15 15
13 15 20 22 21 20 19 18 18 17 16 16 15 15 15 15 15 15 15 15 15 14 14 13 12 11 11 11 10 10 12 15 14 14 13 13 14 16 16 15 15 15 15
16 14 19 21 21 20 19 19 18 17 16 15 15 15 15 15 15 15 15 15 14 13 13 12 11 10 9 9 9 10 12 14 14 13 13 13 15 15 15 15 14 14 14
15 13 14 18 19 19 19 19 18 17 16 15 15 14 15 15 15 14 14 14 13 13 12 11 10 9 8 8 9 9 11 14 15 13 13 13 15 15 15 14 14 13 13
13 12 11 14 15 16 17 18 18 17 16 16 15 14 14 14 14 14 13 13 12 12 11 10 9 7 6 7 8 10 12 14 14 12 12 13 15 15 14 14 13 13 13
13 10 10 10 12 14 15 16 17 17 16 15 15 15 14 12 12 12 12 12 12 11 10 8 7 6 5 5 7 9 10 12 13 12 11 14 15 14 14 13 13 12 12
16 13 11 11 11 13 13 14 13 13 14 13 12 13 12 11 11 11 12 12 11 10 9 7 6 4 3 3 5 8 10 12 12 11 11 15 14 14 13 13 12 12 12
17 16 14 13 12 11 8 11 9 10 11 11 12 12 11 10 9 9 9 9 9 9 6 6 4 3 2 2 4 6 9 10 10 10 12 15 14 13 13 12 12 12 11
17 16 15 14 12 11 10 9 9 8 8 8 12 13 10 7 7 7 7 8 7 7 5 5 4 4 4 3 4 7 9 10 10 10 13 15 14 13 13 12 12 12 11
17 16 16 15 14 11 10 8 9 8 9 11 11 13 13 8 6 6 6 8 8 7 7 5 4 4 3 3 5 9 10 11 12 11 12 15 14 14 13 13 12 12 12
17 17 15 15 14 12 10 8 8 9 11 11 11 13 14 12 9 7 6 6 8 9 9 7 6 4 3 3 4 8 10 11 12 12 12 14 14 14 14 13 13 12 12
16 15 15 15 13 13 12 10 9 10 11 9 10 13 14 13 11 8 6 5 7 9 8 6 5 4 3 3 4 6 8 10 11 12 13 13 13 14 14 14 14 13 13
14 14 15 15 13 12 10 8 7 9 9 9 11 12 13 14 13 9 5 5 8 8 6 4 3 3 2 2 3 4 5 8 10 12 13 13 13 13 14 15 15 15 14
13 14 14 12 12 10 8 6 6 7 7 9 10 10 12 13 13 10 6 6 8 5 4 5 4 3 3 3 3 3 4 5 7 10 10 13 14 14 15 16 17 17 16
11 11 12 11 11 9 7 5 4 5 5 7 8 10 12 12 13 10 6 6 6 4 4 3 4 3 3 3 3 2 3 4 5 6 9 11 13 15 16 16 16 17 18
11 11 11 11 10 9 6 6 5 5 5 5 5 9 11 11 11 8 5 4 5 5 5 5 4 3 2 2 2 1 2 2 4 5 6 7 9 14 16 17 16 16 16
12 11 11 11 11 10 8 6 4 4 4 5 5 7 10 11 10 9 6 5 5 5 5 5 4 3 2 3 3 2 1 3 3 5 5 6 7 9 12 16 17 18 17
13 13 13 12 11 10 8 5 4 3 2 2 4 5 6 9 11 9 8 6 5 5 5 5 5 6 4 3 3 4 3 4 3 3 4 6 6 6 7 11 16 18 19
12 11 10 10 10 9 9 8 8 6 5 5 5 5 6 8 9 10 8 7 6 5 6 6 6 4 5 3 2 2 3 4 3 2 3 3 6 7 8 8 11 15 18
10 10 9 9 9 8 9 9 8 6 5 4 4 6 6 6 7 8 9 7 6 5 6 6 5 5 5 5 4 2 2 1 2 3 3 3 3 5 6 7 8 11 16
9 9 9 9 9 8 9 9 9 8 7 6 6 6 5 4 5 7 8 7 7 6 6 6 6 6 6 5 4 4 3 3 3 3 3 4 4 4 4 5 6 8 12
Wind_Direction
142 144 136 130 124 119 115 110 106 104 102 101 102 103 104 105 106 107 107 107 107 107 107 107 107 108 109 111 111 112 113 112 111 112 113 113 113 113 112 111 109 109 111
145 145 138 133 128 124 120 116 113 110 107 106 106 107 108 108 109 110 111 110 110 109 108 108 109 110 111 112 113 115 115 113 112 112 112 112 113 114 114 113 111 113 112
139 142 139 136 132 129 125 121 118 115 113 111 110 110 111 111 112 113 113 112 112 111 111 111 111 113 113 114 115 117 116 114 111 110 107 105 110 113 115 116 115 114 113
138 140 141 139 136 132 130 126 124 121 118 116 115 115 115 114 114 115 116 117 116 116 115 114 114 114 114 115 116 117 117 116 113 110 105 107 111 115 115 115 115 115 114
135 140 144 142 139 136 133 131 129 126 123 121 120 119 119 119 117 117 118 119 120 120 119 118 117 115 115 114 114 115 117 116 116 109 104 105 111 117 117 117 116 116 116
134 141 146 143 141 139 137 135 133 130 128 126 125 123 122 122 122 121 121 121 123 123 122 121 120 118 116 114 113 113 118 118 116 112 110 110 115 119 119 119 119 119 118
137 141 146 145 144 143 141 139 137 134 132 131 130 128 127 125 125 125 124 124 125 126 125 123 122 120 118 115 111 110 117 121 120 117 115 115 119 121 120 120 119 120 121
141 142 146 147 147 146 145 143 141 139 137 136 135 133 131 130 129 129 128 128 128 129 128 127 126 123 118 112 106 106 115 126 125 125 121 122 124 123 123 122 122 122 121
141 142 144 148 149 149 148 147 146 145 143 142 140 138 137 135 135 134 134 134 134 133 133 134 133 131 122 111 104 107 114 125 127 131 130 130 130 128 127 127 126 125 124
143 145 144 146 148 149 151 152 151 150 149 147 146 144 143 141 140 139 139 140 140 140 140 141 140 136 125 113 109 109 114 125 130 135 135 140 139 136 134 133 132 131 129
149 152 150 147 148 149 153 157 156 154 155 153 153 151 146 143 143 145 147 148 148 147 147 148 148 146 130 118 119 116 117 130 132 133 142 148 146 143 141 139 139 139 138
160 163 161 157 156 157 160 157 159 158 159 158 158 155 152 153 155 156 157 155 154 154 157 161 162 158 135 123 128 118 120 131 133 142 151 154 152 150 148 148 147 146 144
166 167 167 165 165 166 159 158 163 161 163 167 169 167 165 166 167 163 162 162 161 163 166 172 178 181 178 161 143 135 138 140 146 155 161 161 159 158 156 155 155 155 154
169 171 169 169 170 170 161 166 169 167 173 179 184 182 172 165 162 163 167 168 170 174 177 183 193 208 223 218 173 155 151 154 160 164 168 169 168 166 165 165 164 164 164
171 172 172 172 174 171 164 172 174 178 182 187 188 186 177 166 167 171 176 180 188 186 189 195 204 219 226 203 165 157 157 161 165 169 172 175 174 173 173 174 174 175 176
172 172 172 173 174 170 171 175 175 181 183 185 188 187 183 176 173 176 179 187 195 197 198 197 199 201 197 172 159 159 158 161 169 173 176 180 182 182 182 181 180 182 184
169 169 170 173 173 173 174 177 174 179 179 183 189 189 183 179 176 175 176 187 196 197 195 192 196 184 183 176 163 159 161 168 173 178 181 184 188 191 191 190 189 191 193
162 166 171 175 173 172 173 171 165 171 174 182 183 184 182 179 177 173 175 188 193 186 179 175 177 169 182 176 170 170 168 173 180 184 186 189 191 196 199 200 199 200 202
163 166 170 169 169 169 166 162 157 159 168 179 178 181 182 181 180 176 178 187 181 171 176 185 173 164 177 189 190 182 179 178 182 187 192 197 199 201 203 207 208 208 210
163 164 169 166 168 164 158 148 144 147 164 175 180 183 181 181 180 175 175 181 171 167 181 178 169 170 176 184 194 189 205 200 192 192 196 199 205 208 209 210 212 216 218
163 162 170 169 170 165 166 164 165 172 170 175 183 180 178 179 178 173 175 174 172 178 185 175 161 166 185 153 108 18 327 243 219 214 203 196 206 211 211 212 212 215 220
172 173 173 176 174 175 176 173 168 162 173 175 175 177 181 178 181 188 175 179 184 179 177 177 161 160 190 161 146 124 2 330 283 233 212 207 209 207 210 213 213 215 218
177 181 182 180 179 178 170 155 142 127 129 161 172 184 189 186 186 187 180 182 189 183 187 190 178 169 187 200 171 154 161 218 262 287 235 224 213 206 213 214 214 217 219
183 178 174 176 179 178 168 168 168 177 189 197 183 185 191 193 191 189 186 186 190 191 193 199 186 179 171 191 212 205 181 165 169 260 295 248 225 219 217 219 217 217 219
176 172 173 174 178 178 175 174 176 187 194 186 179 182 195 199 197 194 190 187 192 199 201 198 184 184 182 182 186 190 194 183 164 166 246 277 265 238 222 219 218 216 219
168 170 172 175 180 178 177 178 182 187 187 184 192 194 199 199 204 204 196 189 193 198 204 204 196 191 196 193 191 184 175 177 196 182 209 239 249 255 238 225 221 220 221
Height
1528 1529 1531 1533 1534 1534 1535 1536 1537 1538 1539 1539 1540 1541 1542 1543 1544 1545 1545 1546 1547 1547 1548 1549 1549 1550 1551 1551 1552 1553 1554 1554 1555 1556 1556 1557 1558 1559 1560 1560 1561 1562 1563
1526 1530 1532 1534 1535 1536 1537 1538 1539 1540 1541 1541 1542 1543 1544 1545 1546 1546 1547 1548 1549 1549 1550 1551 1551 1552 1553 1554 1554 1555 1556 1557 1558 1558 1559 1560 1560 1561 1562 1562 1563 1564 1565
1527 1530 1533 1535 1536 1537 1538 1540 1541 1541 1542 1543 1544 1545 1546 1547 1547 1548 1549 1550 1551 1551 1552 1553 1553 1554 1555 1556 1557 1557 1558 1559 1560 1561 1561 1562 1562 1563 1564 1564 1565 1566 1567
1527 1530 1533 1536 1537 1539 1540 1541 1542 1543 1544 1545 1546 1547 1548 1548 1549 1550 1551 1552 1553 1553 1554 1555 1556 1557 1558 1558 1559 1560 1561 1561 1562 1563 1563 1564 1564 1565 1566 1566 1567 1568 1569
1528 1532 1534 1536 1538 1540 1541 1542 1544 1545 1546 1547 1547 1548 1549 1550 1551 1552 1553 1554 1554 1555 1556 1557 1558 1559 1560 1561 1561 1562 1563 1564 1564 1565 1565 1566 1566 1567 1568 1568 1569 1570 1571
1529 1533 1535 1537 1539 1541 1542 1543 1545 1546 1547 1548 1549 1550 1551 1552 1553 1553 1554 1555 1556 1557 1558 1559 1560 1561 1562 1563 1564 1564 1565 1566 1566 1567 1568 1568 1568 1569 1570 1570 1571 1572 1573
1530 1534 1536 1538 1540 1542 1543 1544 1546 1547 1548 1549 1550 1551 1552 1553 1554 1555 1556 1557 1558 1559 1560 1561 1562 1563 1564 1565 1566 1567 1567 1568 1568 1569 1570 1570 1570 1571 1571 1572 1573 1574 1574
1531 1534 1537 1539 1541 1543 1544 1545 1547 1548 1549 1550 1552 1553 1554 1555 1556 1557 1558 1559 1560 1561 1562 1563 1564 1565 1566 1567 1568 1569 1569 1570 1570 1571 1571 1572 1572 1573 1573 1574 1575 1575 1576
1532 1535 1537 1540 1542 1543 1545 1546 1548 1549 1550 1552 1553 1554 1555 1556 1557 1558 1559 1560 1561 1562 1564 1565 1566 1567 1569 1569 1570 1570 1571 1572 1572 1573 1573 1573 1574 1574 1575 1576 1576 1577 1578
1533 1535 1537 1540 1542 1544 1545 1547 1548 1550 1551 1553 1554 1555 1556 1558 1559 1560 1561 1562 1563 1564 1565 1566 1567 1569 1570 1571 1572 1572 1573 1573 1574 1574 1575 1575 1576 1576 1577 1577 1578 1579 1579
1534 1536 1538 1540 1542 1544 1546 1547 1549 1550 1552 1553 1554 1556 1557 1558 1560 1561 1562 1564 1565 1566 1567 1568 1569 1570 1572 1573 1573 1574 1574 1575 1575 1576 1576 1577 1577 1578 1578 1579 1580 1580 1581
1532 1535 1538 1540 1542 1544 1546 1547 1549 1551 1552 1554 1555 1556 1558 1559 1561 1562 1563 1565 1566 1567 1568 1569 1570 1572 1573 1574 1575 1575 1576 1576 1576 1577 1577 1578 1578 1579 1579 1580 1581 1581 1582
1531 1534 1537 1539 1542 1544 1545 1547 1549 1551 1553 1554 1556 1557 1558 1560 1561 1562 1564 1565 1567 1568 1569 1570 1571 1573 1574 1575 1576 1576 1576 1577 1577 1578 1578 1579 1579 1580 1580 1581 1582 1582 1583
1530 1533 1536 1538 1541 1543 1545 1547 1549 1551 1553 1554 1556 1557 1559 1560 1562 1563 1565 1566 1567 1569 1570 1571 1572 1574 1574 1575 1576 1577 1577 1578 1578 1578 1579 1579 1580 1580 1581 1581 1582 1583 1584
1528 1532 1534 1537 1540 1542 1545 1547 1549 1551 1553 1554 1556 1557 1559 1560 1562 1563 1565 1566 1568 1569 1570 1571 1573 1574 1575 1575 1576 1577 1577 1578 1578 1579 1579 1580 1580 1581 1581 1582 1583 1583 1584
1526 1530 1533 1536 1538 1541 1543 1546 1548 1550 1552 1554 1556 1557 1559 1560 1562 1563 1565 1566 1568 1569 1571 1572 1573 1574 1575 1576 1576 1577 1577 1578 1578 1579 1580 1580 1581 1581 1582 1582 1583 1583 1584
1524 1528 1531 1534 1537 1540 1542 1545 1547 1549 1551 1553 1556 1557 1559 1560 1562 1563 1565 1566 1568 1569 1570 1572 1573 1574 1575 1576 1576 1577 1577 1578 1579 1579 1580 1580 1580 1581 1581 1582 1583 1583 1584
1523 1527 1530 1533 1536 1538 1541 1543 1545 1548 1550 1552 1554 1556 1558 1560 1561 1563 1564 1566 1567 1568 1570 1571 1572 1573 1574 1575 1576 1576 1577 1578 1578 1579 1579 1580 1580 1580 1581 1582 1582 1583 1583
1522 1525 1527 1530 1534 1537 1540 1542 1545 1546 1549 1551 1553 1555 1557 1559 1560 1562 1563 1565 1566 1568 1569 1570 1571 1572 1573 1574 1575 1576 1576 1577 1577 1578 1578 1579 1579 1580 1580 1581 1581 1582 1582
1520 1523 1526 1529 1532 1535 1538 1541 1543 1545 1547 1549 1551 1553 1555 1557 1559 1561 1562 1563 1565 1566 1567 1569 1570 1571 1572 1573 1574 1574 1575 1576 1576 1576 1577 1577 1578 1579 1579 1580 1580 1581 1581
1518 1521 1524 1527 1530 1533 1535 1538 1540 1542 1544 1547 1549 1551 1553 1555 1557 1559 1560 1562 1563 1565 1566 1567 1568 1569 1570 1572 1573 1573 1574 1574 1574 1575 1575 1576 1576 1577 1577 1578 1579 1579 1579
1514 1517 1521 1524 1527 1530 1533 1535 1538 1541 1543 1545 1547 1549 1551 1553 1555 1556 1558 1559 1561 1563 1564 1565 1566 1567 1569 1570 1571 1571 1572 1573 1572 1573 1573 1573 1574 1575 1575 1576 1576 1577 1577
1513 1515 1518 1522 1524 1527 1530 1533 1536 1538 1541 1543 1544 1546 1548 1550 1552 1554 1555 1557 1558 1560 1561 1563 1564 1565 1566 1567 1568 1569 1569 1569 1569 1570 1570 1571 1571 1572 1573 1573 1574 1574 1575
1510 1513 1516 1519 1522 1525 1527 1530 1532 1534 1536 1538 1541 1543 1545 1547 1549 1551 1552 1553 1555 1557 1558 1560 1561 1563 1564 1564 1566 1566 1567 1567 1567 1567 1567 1568 1568 1569 1570 1570 1571 1571 1572
1509 1511 1514 1517 1520 1522 1525 1527 1529 1532 1534 1536 1538 1540 1541 1543 1545 1547 1549 1550 1552 1554 1555 1557 1558 1559 1560 1561 1562 1563 1564 1565 1565 1565 1564 1565 1565 1565 1566 1567 1567 1568 1569
1508 1510 1512 1514 1517 1520 1522 1524 1526 1528 1530 1532 1534 1536 1538 1540 1542 1543 1545 1547 1548 1550 1551 1553 1554 1556 1557 1558 1559 1560 1561 1561 1561 1562 1562 1561 1562 1562 1563 1563 1564 1564 1565